Temperature
23 21 21 22 21 23 23 23 22 21 18 17 16 15 15 15 15 14 13 13 13 13 14 15 16 16 16 16 16 16 16 16 16 16 16 15 15 16 16 16 16 17 17 17
21 22 23 23 23 22 22 23 22 20 19 17 16 15 15 15 14 14 13 13 13 14 15 15 16 16 16 16 16 16 16 16 16 16 16 15 15 15 16 16 16 16 17 17
23 23 24 24 24 24 24 23 23 21 18 17 16 16 15 15 14 14 13 13 14 14 15 15 16 16 16 16 16 16 16 16 16 16 16 16 16 16 16 16 16 17 17 17
23 24 24 24 25 25 24 24 23 22 19 17 18 16 15 15 14 14 14 14 14 15 15 15 16 16 16 16 16 16 16 16 16 16 16 16 16 16 16 16 16 16 17 17
23 23 24 24 25 25 24 22 21 21 19 17 17 16 16 15 14 14 14 14 14 15 15 15 15 15 16 16 16 16 16 16 15 15 15 15 15 15 15 15 15 16 16 16
22 23 23 24 24 24 23 21 19 17 17 18 17 17 17 15 15 14 14 14 14 15 15 15 15 15 16 16 16 16 16 15 15 15 14 14 14 14 14 14 14 15 15 15
21 23 23 24 24 23 21 20 19 19 17 18 17 17 17 16 15 15 14 14 15 15 15 15 15 15 15 15 15 15 15 15 14 14 14 13 13 13 13 13 13 13 14 14
21 21 23 23 23 23 21 20 19 19 18 17 17 17 16 15 15 15 15 15 15 15 15 15 15 15 15 15 14 14 14 14 14 13 13 13 13 13 13 12 12 12 12 12
21 21 22 23 23 23 22 18 18 16 17 17 17 17 16 15 15 14 15 15 15 15 15 15 15 14 14 14 14 13 13 13 13 13 13 13 12 12 12 12 12 12 12 11
21 21 21 21 21 21 20 18 16 16 17 18 18 16 15 14 14 14 14 14 15 15 15 14 14 14 13 13 13 13 13 13 13 13 12 12 12 12 12 11 11 11 11 11
20 19 20 20 20 19 19 18 15 14 15 16 17 15 14 13 13 13 14 14 14 14 14 14 13 13 13 12 12 12 12 12 12 12 12 12 12 12 11 11 11 11 11 10
18 16 18 19 19 19 19 18 16 17 16 15 14 14 13 13 13 14 14 14 14 14 13 13 13 12 12 12 12 12 12 12 12 11 11 11 11 11 11 11 11 10 10 10
18 16 17 18 18 18 18 17 15 14 13 14 14 14 13 12 13 14 14 14 14 13 13 12 12 12 11 11 11 11 11 11 11 11 11 11 11 11 11 11 11 10 10 10
17 15 17 18 18 18 18 17 16 15 14 15 15 14 13 12 12 13 14 13 13 12 12 11 11 11 10 10 10 10 9 9 9 10 10 10 10 10 10 10 10 10 10 10
16 16 17 17 18 18 17 17 17 16 16 15 15 14 13 12 12 13 13 13 12 12 11 10 10 9 9 9 8 8 8 8 8 8 8 8 9 9 10 10 10 10 10 10
15 16 17 17 17 17 17 17 17 16 16 15 14 13 13 13 13 12 12 12 11 11 10 9 9 8 8 7 7 6 6 6 6 6 6 7 7 8 8 9 9 9 9 9
14 16 16 16 17 17 16 16 16 16 15 14 13 12 11 10 10 11 12 11 10 10 9 8 8 7 7 6 6 5 5 5 5 5 5 5 6 6 7 7 8 8 8 9
15 14 13 15 17 18 16 16 16 15 14 13 12 11 11 11 12 12 11 10 9 9 8 8 7 6 6 6 5 5 5 5 5 5 5 5 5 5 5 5 6 6 7 7
14 14 14 14 16 16 16 16 16 14 13 12 12 11 12 12 10 10 11 9 9 8 8 7 7 6 6 5 5 5 5 5 4 4 4 4 4 4 4 5 5 5 6 6
13 13 14 14 17 16 16 16 16 14 13 13 12 11 11 10 7 8 10 9 8 8 7 7 6 6 6 5 5 5 5 4 4 4 4 4 4 4 4 4 4 4 5 5
16 14 14 14 15 15 15 16 15 14 14 14 13 12 11 9 8 10 9 8 8 7 7 6 6 6 6 5 5 5 5 5 4 4 4 4 4 4 4 4 4 4 4 5
16 15 14 13 15 15 15 14 13 14 14 14 13 12 11 10 10 9 8 8 7 7 7 6 6 6 6 6 5 5 5 5 5 4 4 4 4 4 4 4 4 4 4 4
14 14 13 13 14 15 16 16 16 15 14 13 12 12 11 10 9 8 8 7 7 7 7 6 6 6 6 6 5 5 5 5 5 5 5 4 4 4 4 4 4 4 4 4
14 12 12 12 13 14 15 15 15 14 14 13 12 11 10 9 9 8 7 7 7 7 7 6 6 6 6 6 6 6 6 5 5 5 5 5 4 4 4 4 4 4 4 4
15 13 12 13 13 14 15 15 15 14 13 12 12 11 10 9 8 7 7 7 7 7 7 6 6 6 6 6 6 6 6 5 5 5 5 5 5 4 4 4 4 4 4 4
13 13 13 14 15 13 16 17 15 14 13 12 11 10 9 8 8 7 7 7 7 7 7 7 7 7 7 6 6 6 6 6 5 5 5 5 5 5 4 4 4 4 4 4
Wind_Speed
4 4 2 6 7 6 3 2 1 3 4 9 13 12 11 11 12 13 11 11 11 9 7 7 8 8 8 8 9 9 8 9 8 5 5 4 3 2 2 3 5 7 8 8
6 2 6 5 4 5 4 2 2 6 7 7 9 11 8 10 10 9 9 9 9 8 9 9 9 9 8 8 8 8 8 8 8 5 3 2 2 2 2 3 4 4 5 7
2 6 4 2 2 1 2 4 4 6 5 5 7 6 5 5 7 8 8 7 7 7 8 8 8 7 7 6 6 6 7 7 7 7 4 3 3 2 3 5 5 5 5 4
4 4 3 3 2 1 3 3 3 6 7 3 3 3 1 1 3 4 5 5 5 4 4 5 6 6 5 5 5 4 5 5 5 5 5 6 4 3 4 4 4 6 6 5
6 4 4 3 3 1 2 4 5 5 6 5 5 5 2 3 1 2 2 2 2 3 3 5 6 6 6 6 5 5 4 4 4 3 4 4 3 1 2 3 6 7 7 7
6 4 3 4 3 1 4 6 6 6 5 4 3 2 3 4 4 4 4 3 4 4 5 6 7 8 8 7 7 6 5 5 4 3 1 1 1 1 2 3 4 5 4 5
8 7 4 2 4 5 6 6 5 6 6 2 2 1 2 2 3 5 6 6 6 6 6 7 9 9 9 9 8 7 7 7 6 5 4 4 4 3 3 3 3 3 3 3
4 7 6 5 2 2 3 6 6 3 3 3 4 1 2 0 2 2 3 4 5 6 7 9 10 10 10 10 10 8 8 9 8 7 7 6 6 5 5 5 5 4 4 4
1 5 6 5 4 2 3 4 4 6 3 2 3 3 3 2 2 1 1 1 4 6 8 9 9 9 9 10 10 9 9 9 10 9 9 9 8 8 8 7 6 5 5 5
2 4 7 7 8 9 6 7 5 5 3 1 4 2 4 6 4 1 1 3 6 7 9 10 9 8 8 8 9 10 9 10 11 10 10 9 9 9 9 7 8 8 8 7
3 2 6 6 7 7 7 6 6 5 4 4 2 3 3 3 2 1 2 4 7 9 10 9 9 8 9 9 10 10 11 11 12 12 12 11 11 10 9 9 10 10 9 8
3 4 2 4 4 3 5 5 3 3 1 3 2 4 2 0 1 1 4 7 9 10 9 9 9 9 10 11 11 12 12 13 13 13 13 13 13 11 10 11 12 11 11 10
5 5 4 7 7 7 7 5 5 6 5 3 1 5 2 1 3 4 7 9 10 10 10 9 9 10 11 12 12 13 13 14 14 13 13 14 14 14 13 13 13 11 11 11
5 5 4 3 4 1 4 5 4 5 3 2 5 7 4 4 7 9 10 10 10 10 10 10 11 11 12 12 12 12 14 14 14 14 14 15 16 16 15 13 12 12 11 11
6 5 3 2 2 5 4 4 4 4 3 5 7 7 7 6 8 9 9 10 11 11 11 11 11 11 11 11 11 11 12 13 13 13 14 15 16 15 15 14 13 12 11 12
5 5 3 2 4 6 4 3 2 0 2 4 5 7 6 6 7 9 11 11 11 12 12 12 12 12 12 11 12 12 12 12 12 13 15 15 15 15 15 14 13 12 11 11
3 5 3 2 3 2 2 3 2 4 5 5 7 7 8 9 9 9 11 11 11 13 13 13 13 13 13 13 13 13 13 13 13 14 15 15 14 15 14 15 13 12 11 10
6 5 4 2 2 4 6 3 4 5 6 7 8 8 9 11 10 10 10 9 11 12 11 12 12 12 13 13 14 14 14 14 15 15 15 15 14 15 14 13 13 12 10 9
4 7 4 3 1 5 3 4 3 4 7 7 7 9 9 9 8 7 7 7 9 10 12 13 14 15 13 14 14 15 15 15 15 16 16 15 15 15 15 14 13 12 10 9
6 6 6 4 2 5 7 3 1 2 6 6 6 8 8 7 7 7 7 9 11 12 12 13 13 14 13 14 14 14 16 16 16 16 16 16 15 16 16 15 13 11 10 10
3 5 4 4 4 7 6 2 3 2 7 4 5 7 7 5 7 9 11 10 10 12 14 14 14 14 14 14 13 15 16 16 16 16 16 16 15 14 14 13 12 11 10 9
6 4 4 4 3 7 5 6 6 8 4 3 5 6 7 8 9 9 10 11 13 13 13 13 13 15 14 13 13 15 16 16 15 15 15 15 14 13 12 10 10 9 9 9
6 8 6 8 8 5 6 8 6 6 5 5 5 6 6 7 8 9 9 10 12 13 13 13 14 16 15 13 13 16 17 16 15 15 15 14 13 11 10 10 9 8 7 7
3 4 4 4 7 6 6 5 4 6 6 5 5 6 5 7 9 10 10 11 12 12 14 13 15 16 16 16 15 15 16 15 15 15 14 12 12 11 9 7 7 6 6 6
6 7 4 5 6 4 8 8 7 5 5 5 5 5 6 7 9 9 9 11 11 12 12 12 14 16 17 17 17 16 15 15 15 14 12 12 10 10 9 8 6 6 6 7
6 8 8 8 9 8 8 8 8 7 7 7 6 6 6 6 8 9 9 10 11 13 14 14 15 16 17 17 17 16 14 14 14 12 11 9 9 8 7 7 7 6 6 7
Wind_Direction
32 58 298 254 213 220 237 245 289 114 129 71 78 70 43 36 46 50 50 51 52 47 31 25 23 24 26 19 17 15 12 359 354 343 337 337 345 353 327 281 246 238 241 233
30 319 261 263 223 208 197 196 124 97 118 103 95 73 45 38 41 43 46 43 40 33 22 18 18 18 16 12 9 7 7 3 360 350 332 331 328 329 319 314 306 278 249 234
232 254 291 318 32 109 203 195 196 149 108 108 120 75 43 32 36 39 36 33 31 36 17 2 1 360 359 2 356 359 358 1 359 357 0 5 17 2 5 350 345 332 309 262
289 288 330 348 354 90 289 275 200 149 137 157 177 120 142 133 30 22 14 13 9 12 357 334 330 328 328 322 322 334 344 351 353 5 35 47 46 21 345 332 338 339 346 344
290 302 322 319 293 260 237 49 74 100 117 86 42 107 191 190 203 237 280 315 316 313 300 295 295 291 292 291 295 301 314 324 332 6 41 57 52 2 319 333 348 354 354 358
264 278 240 258 299 5 115 73 55 55 73 64 333 117 199 208 198 189 207 223 250 271 282 284 284 283 282 279 277 277 284 289 297 314 340 112 130 305 331 335 340 342 339 344
334 331 322 302 340 10 65 73 27 8 15 290 305 88 245 200 175 180 194 213 234 254 267 276 279 279 278 280 277 273 274 277 280 283 279 262 248 247 255 268 282 301 315 316
351 320 328 352 348 308 59 118 144 201 234 287 344 1 316 138 149 163 182 206 233 257 265 269 271 273 278 284 287 285 280 280 281 278 274 269 260 251 249 250 250 254 252 263
281 287 319 351 353 87 89 73 135 125 125 31 317 335 1 70 61 120 151 210 257 271 278 278 282 289 293 295 294 290 284 282 279 273 270 269 262 253 251 252 250 251 252 260
163 287 319 323 21 27 84 128 82 88 114 323 319 2 338 331 331 328 258 278 290 294 293 294 298 300 298 296 294 293 282 275 275 275 269 267 256 251 250 251 250 249 250 251
103 92 337 20 30 347 16 48 81 90 121 141 281 277 344 307 337 23 329 308 298 295 294 297 300 297 295 295 291 287 284 280 279 277 274 271 265 255 248 245 248 248 247 244
95 102 18 323 315 347 71 59 101 108 75 120 186 256 316 112 62 350 297 292 291 292 291 292 292 291 293 291 290 287 284 280 277 275 274 272 271 265 253 247 247 244 242 241
111 84 43 357 348 8 37 31 71 96 97 110 208 264 191 333 313 293 288 292 297 304 302 299 298 295 294 293 292 291 289 286 285 284 282 279 276 272 263 253 247 241 238 239
100 83 129 181 249 329 46 23 44 85 97 246 237 257 248 307 306 300 295 292 297 300 297 294 294 293 292 293 293 294 294 294 295 294 290 285 280 276 270 262 251 242 235 233
81 86 74 51 56 101 91 67 60 92 169 210 258 263 258 267 283 285 287 292 300 299 296 295 295 294 293 295 295 295 295 296 297 297 295 290 287 283 278 271 261 249 238 235
67 113 107 58 64 88 77 41 48 98 244 251 271 274 251 279 292 287 287 292 297 299 301 302 301 301 301 301 302 301 299 297 296 295 293 292 291 289 284 278 270 259 247 237
82 119 114 196 233 338 273 228 232 244 235 223 243 256 289 298 293 284 289 299 301 303 305 304 304 302 302 303 303 302 297 297 295 293 293 292 291 290 288 286 280 267 254 243
124 102 112 119 65 262 253 232 217 235 242 220 234 259 278 274 278 279 280 285 291 297 299 302 304 303 301 299 301 300 301 300 298 296 293 292 291 289 287 285 282 275 263 250
129 130 114 111 223 285 264 219 190 232 270 220 237 265 278 295 316 293 275 281 288 296 301 304 304 304 301 302 304 305 306 304 303 302 299 295 291 289 286 282 278 274 266 257
61 88 111 124 184 251 247 204 137 148 285 228 231 268 286 321 325 291 296 311 306 304 303 303 303 303 304 305 307 309 310 308 307 306 303 298 291 285 283 279 276 272 264 257
49 52 103 157 223 261 237 166 97 192 268 223 231 263 277 257 245 275 302 303 297 297 300 303 305 308 308 308 310 310 310 309 308 307 305 300 294 288 283 279 271 266 260 253
173 160 181 156 210 264 197 146 186 222 239 242 253 263 267 266 274 288 296 297 303 305 306 308 310 312 312 312 313 313 311 309 309 308 306 304 300 296 294 285 275 266 257 246
192 189 189 189 213 243 201 202 213 181 210 242 251 267 277 282 286 293 293 297 302 305 309 312 313 314 315 316 315 313 312 312 312 310 308 307 307 303 295 288 282 272 257 243
238 143 150 234 257 238 232 232 213 193 213 243 260 277 278 278 284 290 292 298 305 308 314 315 318 318 318 318 317 312 312 314 313 313 311 311 311 310 304 292 284 273 257 244
223 169 183 242 263 254 255 233 218 213 233 263 277 272 268 272 281 283 293 302 308 313 313 314 318 318 318 319 317 315 316 317 318 316 315 315 313 311 310 303 289 275 259 247
195 178 179 219 213 193 232 222 196 206 234 248 257 267 269 266 274 287 296 301 307 312 315 318 320 321 320 319 317 318 319 321 321 321 321 318 318 318 318 318 315 292 271 263
Height
1496 1501 1505 1502 1500 1499 1501 1504 1506 1508 1511 1515 1521 1523 1523 1521 1517 1515 1514 1512 1511 1511 1511 1510 1509 1508 1507 1506 1504 1502 1500 1498 1495 1492 1489 1484 1481 1481 1483 1485 1489 1493 1495 1497
1501 1502 1495 1492 1493 1496 1500 1503 1505 1510 1512 1516 1524 1526 1525 1523 1521 1520 1518 1516 1515 1514 1513 1512 1511 1510 1509 1507 1505 1504 1501 1498 1496 1493 1491 1488 1487 1486 1485 1487 1489 1491 1493 1494
1501 1497 1491 1491 1492 1494 1496 1499 1500 1507 1514 1517 1521 1530 1529 1528 1525 1523 1521 1520 1519 1517 1517 1516 1514 1513 1511 1509 1507 1505 1502 1500 1497 1494 1492 1490 1489 1488 1488 1488 1488 1488 1489 1490
1498 1493 1492 1491 1491 1491 1499 1491 1492 1499 1514 1524 1521 1536 1534 1530 1529 1527 1525 1523 1522 1520 1519 1519 1517 1515 1513 1511 1508 1506 1503 1500 1497 1494 1492 1490 1488 1487 1486 1485 1484 1484 1484 1484
1499 1493 1493 1493 1490 1488 1491 1491 1494 1500 1511 1523 1525 1533 1535 1530 1531 1529 1527 1526 1524 1523 1521 1520 1519 1517 1514 1511 1509 1506 1503 1500 1497 1494 1491 1489 1487 1486 1484 1483 1481 1480 1480 1479
1496 1491 1491 1489 1486 1486 1488 1494 1501 1509 1517 1531 1530 1531 1534 1530 1528 1528 1527 1526 1525 1524 1522 1521 1519 1517 1514 1511 1508 1505 1502 1499 1496 1493 1490 1488 1486 1484 1482 1480 1479 1477 1476 1475
1502 1494 1489 1488 1489 1489 1492 1507 1526 1528 1536 1536 1528 1530 1531 1524 1524 1525 1525 1525 1524 1523 1522 1520 1518 1515 1512 1509 1506 1503 1499 1497 1494 1491 1488 1486 1483 1481 1479 1477 1475 1474 1472 1471
1514 1512 1494 1490 1492 1495 1497 1506 1527 1536 1539 1537 1530 1531 1530 1523 1523 1524 1524 1524 1524 1523 1521 1519 1516 1513 1509 1506 1503 1499 1496 1493 1490 1488 1485 1482 1480 1478 1475 1473 1471 1470 1468 1467
1514 1512 1495 1491 1491 1491 1499 1510 1512 1528 1532 1539 1534 1529 1525 1524 1524 1524 1523 1523 1522 1521 1519 1516 1513 1510 1506 1502 1499 1495 1492 1489 1486 1483 1480 1478 1475 1473 1471 1469 1467 1465 1463 1462
1507 1513 1503 1496 1492 1495 1499 1507 1518 1528 1538 1542 1535 1534 1537 1529 1527 1524 1524 1523 1521 1520 1517 1513 1510 1506 1503 1499 1496 1492 1488 1484 1481 1478 1475 1471 1469 1467 1464 1462 1461 1459 1458 1456
1505 1515 1512 1505 1508 1511 1507 1511 1522 1532 1533 1542 1545 1542 1533 1531 1527 1525 1524 1522 1520 1517 1514 1510 1506 1503 1500 1496 1493 1488 1484 1480 1476 1472 1469 1465 1462 1459 1457 1455 1453 1452 1451 1450
1509 1518 1523 1515 1508 1506 1508 1514 1520 1529 1535 1539 1545 1545 1531 1529 1526 1524 1523 1520 1517 1514 1510 1507 1503 1500 1496 1492 1488 1483 1479 1474 1470 1465 1461 1458 1454 1450 1448 1446 1445 1444 1443 1442
1509 1520 1532 1529 1524 1515 1515 1518 1522 1529 1538 1541 1545 1541 1529 1527 1525 1523 1520 1517 1514 1510 1507 1503 1500 1496 1491 1487 1482 1477 1472 1467 1462 1458 1453 1449 1445 1442 1439 1437 1436 1435 1434 1434
1507 1522 1531 1535 1530 1522 1523 1523 1522 1529 1540 1539 1536 1531 1527 1525 1522 1519 1516 1513 1510 1507 1503 1499 1495 1490 1486 1480 1475 1470 1464 1459 1454 1449 1444 1439 1436 1432 1429 1427 1426 1425 1425 1425
1509 1524 1524 1524 1521 1521 1524 1525 1525 1527 1529 1535 1530 1528 1523 1521 1519 1516 1512 1509 1505 1502 1498 1494 1489 1484 1479 1473 1467 1462 1456 1451 1446 1440 1435 1430 1426 1422 1419 1417 1415 1415 1415 1416
1514 1523 1525 1527 1525 1524 1527 1526 1525 1526 1526 1527 1526 1525 1518 1517 1516 1512 1509 1505 1501 1497 1493 1488 1483 1477 1472 1466 1460 1453 1447 1442 1437 1431 1425 1420 1416 1412 1408 1406 1405 1404 1404 1405
1519 1524 1530 1534 1527 1528 1533 1527 1525 1525 1524 1525 1528 1523 1516 1514 1512 1509 1504 1501 1498 1493 1488 1483 1477 1471 1465 1459 1452 1445 1439 1433 1428 1422 1416 1411 1407 1402 1399 1396 1394 1393 1394 1395
1518 1526 1534 1535 1532 1535 1530 1520 1520 1522 1521 1520 1519 1517 1514 1511 1508 1505 1502 1499 1494 1489 1483 1477 1471 1464 1458 1452 1445 1438 1432 1426 1420 1414 1409 1403 1398 1394 1390 1387 1384 1383 1384 1385
1512 1521 1533 1539 1536 1532 1525 1519 1519 1522 1522 1517 1517 1514 1512 1508 1504 1500 1498 1495 1490 1485 1479 1472 1465 1458 1451 1445 1439 1432 1425 1420 1413 1407 1401 1396 1390 1385 1381 1378 1375 1374 1375 1375
1515 1518 1530 1536 1534 1537 1524 1516 1516 1520 1522 1514 1513 1511 1509 1507 1507 1499 1494 1491 1485 1480 1474 1467 1459 1452 1446 1439 1433 1426 1420 1414 1407 1401 1395 1388 1383 1378 1373 1369 1367 1366 1366 1367
1520 1525 1530 1534 1535 1527 1515 1513 1516 1525 1520 1511 1510 1508 1506 1505 1503 1496 1491 1487 1481 1475 1468 1461 1454 1447 1440 1434 1428 1421 1415 1408 1402 1395 1388 1382 1376 1370 1365 1361 1359 1358 1358 1359
1521 1526 1530 1536 1534 1528 1511 1512 1515 1513 1507 1507 1506 1505 1503 1500 1496 1492 1488 1482 1476 1469 1463 1456 1449 1442 1435 1429 1423 1416 1409 1403 1396 1389 1383 1376 1370 1365 1360 1356 1353 1351 1351 1351
1516 1516 1519 1521 1519 1509 1506 1506 1506 1506 1505 1504 1503 1501 1499 1496 1492 1488 1484 1478 1472 1465 1458 1452 1445 1437 1431 1425 1419 1411 1405 1398 1391 1385 1378 1372 1366 1360 1355 1351 1348 1346 1346 1346
1510 1509 1512 1513 1507 1505 1504 1503 1503 1503 1503 1502 1500 1498 1496 1493 1489 1485 1480 1474 1467 1461 1454 1447 1440 1433 1427 1421 1414 1408 1401 1394 1387 1381 1374 1368 1362 1356 1352 1348 1345 1342 1341 1341
1504 1506 1509 1508 1504 1502 1501 1500 1500 1500 1500 1499 1497 1495 1493 1490 1486 1481 1476 1470 1464 1457 1451 1444 1437 1430 1423 1417 1410 1404 1397 1391 1384 1378 1372 1366 1360 1354 1350 1346 1342 1340 1339 1338
1498 1500 1503 1502 1496 1497 1495 1495 1497 1497 1497 1496 1494 1492 1490 1487 1482 1478 1472 1467 1461 1454 1448 1441 1435 1428 1421 1414 1407 1400 1394 1388 1382 1375 1370 1364 1359 1354 1349 1345 1342 1339 1337 1336